User: anonymous
Location: Caltech
(34.1382°N, 118.1253°W)
Time: 11:50:49
(UTC-07:00)
Language:

Iridium 49 - Orbit

View from above orbital plane
View from above orbital plane
View from above satellite
View from above satellite

Ground track
Ground track

The orbit data is extracted from the following two-line orbital elements,

1 25108U 97082E   14245.28547182  .00000289  00000-0  96102-4 0  8939
2 25108 086.3987 321.3327 0002442 109.6789 313.3059 14.34219761874339
Epoch (UTC): 02 September 2014 06:51:04
Eccentricity: 0.0002442
inclination: 86.3987°
perigee height: 776 km
apogee height: 779 km
right ascension of ascending node: 321.3327°
argument of perigee: 109.6789°
revolutions per day: 14.34219761
mean anomaly at epoch: 313.3059°
orbit number at epoch: 87433

The dashed part of the orbit path shows where the satellite is in the earth's shadow,  

DLR